Weather History for London, United Kingdom

Change the Weather History Date:

Tuesday, March 11, 2014

  Actual Average Record
Temperature  
Mean Temperature 47 °F -  
Max Temperature 52 °F 52 °F 62 °F (1997)
Min Temperature 42 °F 39 °F 28 °F (2006)
Degree Days  
Heating Degree Days 18    
Moisture  
Dew Point 40 °F    
Average Humidity 76    
Maximum Humidity 87    
Minimum Humidity 61    
Precipitation  
Precipitation 0.00 in - - ()
Sea Level Pressure  
Sea Level Pressure 30.52 in    
Wind  
Wind Speed 9 mph ()    
Max Wind Speed 13 mph    
Max Gust Speed -    
Visibility 7.7 miles    
Events Rain    
Averages and records for this station are not official NWS values.
T = Trace of Precipitation, MM = Missing Value Source: Averaged Metar Reports

Daily Weather History Graph

Daily Weather History Graph

Search for Another Location

Airport:

Trip Planner

Search our weather history database for the weather conditions in past years. The results will help you decide how hot, cold, wet, or windy it might be!

Date:

Astronomy

Mar. 11, 2014 Rise Set
Actual Time 6:25 AM GMT 5:59 PM GMT
Civil Twilight 5:52 AM GMT 6:32 PM GMT
Nautical Twilight 5:13 AM GMT 7:11 PM GMT
Astronomical Twilight 4:33 AM GMT 7:51 PM GMT
Moon 12:57 PM GMT (3/11) 3:35 AM GMT (3/11)
Length of Visible Light 12h 40m
Length of Day
11h 34m
Waxing Gibbous, 77% of the Moon is Illuminated
Mar 11
Waxing Gibbous
Mar 16
Full
Mar 24
Last Quarter
Mar 30
New
Apr 7
First Quarter

Hourly Weather History & Observations

Time (GMT) Temp. Windchill Dew Point Humidity Pressure Visibility Wind Dir Wind Speed Gust Speed Precip Events Conditions
12:00 AM 44 °F - 36 °F 66% 30.51 in 19 mi NE 9.2 mph - -   Overcast
12:20 AM 44.6 °F 39.7 °F 37.4 °F 76% 30.48 in 6.2 mi NE 9.2 mph - N/A   Mostly Cloudy
12:50 AM 44.6 °F 40.2 °F 37.4 °F 76% 30.48 in 6.2 mi NE 8.1 mph - N/A   Mostly Cloudy
1:00 AM 44 °F - 36 °F 66% 30.50 in 17 mi NE 10.4 mph - -   Overcast
1:20 AM 44.6 °F 40.7 °F 37.4 °F 76% 30.51 in 6.2 mi NE 6.9 mph - N/A   Overcast
1:50 AM 44.6 °F 39.7 °F 39.2 °F 81% 30.51 in 6.2 mi NE 9.2 mph - N/A   Overcast
2:00 AM 44 °F - 37 °F 68% 30.51 in 19 mi NNE 11.5 mph - -   Overcast
2:20 AM 44.6 °F 40.2 °F 37.4 °F 76% 30.51 in 6.2 mi NE 8.1 mph - N/A   Overcast
2:50 AM 44.6 °F 39.2 °F 39.2 °F 81% 30.51 in 6.2 mi NE 10.4 mph - N/A   Mostly Cloudy
3:00 AM 44 °F - 37 °F 68% 30.51 in 19 mi NE 10.4 mph - -   Overcast
3:20 AM 44.6 °F 38.4 °F 39.2 °F 81% 30.51 in 6.2 mi ENE 12.7 mph - N/A   Mostly Cloudy
3:50 AM 44.6 °F 38.8 °F 39.2 °F 81% 30.51 in 6.2 mi ENE 11.5 mph - N/A   Mostly Cloudy
4:00 AM 44 °F - 37 °F 70% 30.50 in 15 mi ENE 9.2 mph - -   Overcast
4:20 AM 44.6 °F 38.8 °F 39.2 °F 81% 30.51 in 6.2 mi ENE 11.5 mph - N/A   Mostly Cloudy
4:50 AM 42.8 °F 37.0 °F 39.2 °F 87% 30.51 in 6.2 mi ENE 10.4 mph - N/A   Mostly Cloudy
5:00 AM 44 °F - 38 °F 71% 30.51 in 17 mi NE 8.1 mph - -   Overcast
5:20 AM 42.8 °F 37.5 °F 39.2 °F 87% 30.51 in 6.2 mi ENE 9.2 mph - N/A   Mostly Cloudy
5:50 AM 42.8 °F 37.0 °F 39.2 °F 87% 30.51 in 6.2 mi ENE 10.4 mph - N/A   Mostly Cloudy
6:00 AM 43 °F - 39 °F 79% 30.53 in 10 mi NE 10.4 mph - -  
6:20 AM 42.8 °F 37.5 °F 39.2 °F 87% 30.54 in 6.2 mi ENE 9.2 mph - N/A   Mostly Cloudy
6:50 AM 42.8 °F 38.6 °F 39.2 °F 87% 30.54 in 6.2 mi ENE 6.9 mph - N/A   Mostly Cloudy
7:00 AM 44 °F - 39 °F 75% 30.54 in 11 mi NE 10.4 mph - - Rain Rain
7:20 AM 44.6 °F 39.7 °F 39.2 °F 81% 30.54 in 6.2 mi ENE 9.2 mph - N/A   Mostly Cloudy
7:50 AM 44.6 °F 39.7 °F 39.2 °F 81% 30.54 in 6.2 mi ENE 9.2 mph - N/A   Overcast
8:00 AM 44 °F - 38 °F 73% 30.55 in 12 mi NE 9.2 mph - -   Overcast
8:20 AM 44.6 °F 40.7 °F 39.2 °F 81% 30.54 in 6.2 mi NE 6.9 mph - N/A   Overcast
8:50 AM 44.6 °F 40.2 °F 39.2 °F 81% 30.54 in 6.2 mi NE 8.1 mph - N/A   Overcast
9:00 AM 45 °F - 38 °F 70% 30.55 in 11 mi NE 10.4 mph - -   Overcast
9:20 AM 44.6 °F 39.7 °F 39.2 °F 81% 30.54 in 6.2 mi ENE 9.2 mph - N/A   Overcast
9:50 AM 46.4 °F 41.9 °F 41.0 °F 81% 30.54 in 6.2 mi NE 9.2 mph - N/A   Overcast
10:00 AM 46 °F - 39 °F 69% 30.55 in 10 mi NE 11.5 mph - -   Overcast
10:20 AM 46.4 °F 41.5 °F 41.0 °F 81% 30.54 in 6.2 mi ENE 10.4 mph - N/A   Mostly Cloudy
10:50 AM 46.4 °F 41.5 °F 41.0 °F 81% 30.54 in 6.2 mi ENE 10.4 mph - N/A   Mostly Cloudy
11:00 AM 47 °F - 40 °F 69% 30.55 in 9 mi NE 10.4 mph - -   Overcast
11:20 AM 48.2 °F - 42.8 °F 82% 30.54 in 5.6 mi NE 8.1 mph - N/A   Mostly Cloudy
11:50 AM 48.2 °F - 42.8 °F 82% 30.54 in 5.0 mi NE 9.2 mph - N/A   Overcast
12:00 PM 48 °F - 41 °F 70% 30.54 in 6 mi NE 10.4 mph - -   Overcast
12:20 PM 48.2 °F - 42.8 °F 82% 30.54 in 5.0 mi ENE 10.4 mph - N/A   Mostly Cloudy
12:50 PM 50.0 °F - 42.8 °F 76% 30.51 in 4.3 mi ENE 9.2 mph - N/A   Mostly Cloudy
1:00 PM 50 °F - 41 °F 63% 30.53 in 6 mi NE 10.4 mph - -   Overcast
1:20 PM 50.0 °F - 42.8 °F 76% 30.51 in 4.3 mi ENE 9.2 mph - N/A   Mostly Cloudy
1:50 PM 50.0 °F - 44.6 °F 82% 30.51 in 4.3 mi ENE 9.2 mph - N/A   Mostly Cloudy
2:00 PM 51 °F - 42 °F 64% 30.52 in 6 mi ENE 10.4 mph - -   Light Haze
2:20 PM 51.8 °F - 44.6 °F 76% 30.51 in 4.3 mi ENE 9.2 mph - N/A   Mostly Cloudy
2:50 PM 51.8 °F - 44.6 °F 76% 30.51 in 4.3 mi NE 9.2 mph - N/A   Mostly Cloudy
3:00 PM 52 °F - 43 °F 61% 30.51 in 6 mi NE 8.1 mph - -   Light Haze
3:20 PM 51.8 °F - 44.6 °F 76% 30.51 in 5.0 mi NE 8.1 mph - N/A   Mostly Cloudy
3:50 PM 51.8 °F - 44.6 °F 76% 30.51 in 5.0 mi NE 9.2 mph - N/A   Scattered Clouds
4:00 PM 52 °F - 43 °F 63% 30.51 in 6 mi NE 9.2 mph - -   Light Haze
4:20 PM 53.6 °F - 44.6 °F 72% 30.51 in 4.3 mi NE 9.2 mph - N/A   Mostly Cloudy
4:50 PM 51.8 °F - 44.6 °F 76% 30.51 in 5.0 mi NE 8.1 mph - N/A   Mostly Cloudy
5:00 PM 52 °F - 43 °F 64% 30.50 in 6 mi NE 9.2 mph - -   Partly Cloudy
5:20 PM 51.8 °F - 44.6 °F 76% 30.51 in 6.2 mi NE 6.9 mph - N/A   Scattered Clouds
5:50 PM 51.8 °F - 44.6 °F 76% 30.51 in 6.2 mi NE 6.9 mph - N/A   Partly Cloudy
6:00 PM 51 °F - 43 °F 66% 30.50 in 7 mi NNE 6.9 mph - -  
6:20 PM 51.8 °F - 42.8 °F 71% 30.51 in 5.6 mi NE 6.9 mph - N/A   Unknown
6:50 PM 50.0 °F - 42.8 °F 76% 30.51 in - ENE 9.2 mph - N/A   Clear
7:00 PM 50 °F - 42 °F 64% 30.52 in 9 mi NE 8.1 mph - -  
7:20 PM 50.0 °F - 42.8 °F 76% 30.51 in 5.6 mi ENE 9.2 mph - N/A   Unknown
7:50 PM 48.2 °F - 42.8 °F 82% 30.51 in 5.0 mi ENE 10.4 mph - N/A   Partly Cloudy
8:00 PM 49 °F - 42 °F 67% 30.52 in 7 mi NE 11.5 mph - -  
8:20 PM 48.2 °F - 41.0 °F 76% 30.51 in 5.0 mi ENE 6.9 mph - N/A   Unknown
8:50 PM 46.4 °F 41.9 °F 41.0 °F 81% 30.51 in - ENE 9.2 mph - N/A   Clear
9:00 PM 47 °F - 40 °F 68% 30.53 in 10 mi NE 9.2 mph - -  
9:20 PM 46.4 °F 42.4 °F 41.0 °F 81% 30.54 in - ENE 8.1 mph - N/A   Clear
9:50 PM 44.6 °F 39.7 °F 39.2 °F 81% 30.54 in - ENE 9.2 mph - N/A   Clear
10:00 PM 45 °F - 38 °F 68% 30.53 in 14 mi NE 6.9 mph - -  
10:20 PM 44.6 °F 40.2 °F 39.2 °F 81% 30.54 in - ENE 8.1 mph - N/A   Clear
10:50 PM 42.8 °F 39.3 °F 39.2 °F 87% 30.54 in - ENE 5.8 mph - N/A   Clear
11:00 PM 44 °F - 37 °F 69% 30.53 in 15 mi NE 5.8 mph - -  
11:20 PM 42.8 °F 40.1 °F 39.2 °F 87% 30.51 in - NE 4.6 mph - N/A   Clear
11:50 PM 42.8 °F 40.1 °F 37.4 °F 81% 30.51 in - NE 4.6 mph - N/A   Clear